This is the latest recevied weather packets stored in our database for station/object IZ1RFL-3. If no packets are shown the sender has not sent any weather packets the latest 1 day(s).
| Time | Temp. | Humidity | Pressure | Rain* | Wind** | Luminosity | Snow |
|---|---|---|---|---|---|---|---|
| 1778010366 | 13.89° C | 77% | 1013.8 hPa | - | 0 m/s | - | - |
| 1778009466 | 14.44° C | 75% | 1013.7 hPa | - | 0 m/s | - | - |
| 1778008566 | 14.44° C | 74% | 1013.6 hPa | - | 0 m/s | - | - |
| 1778007666 | 14.44° C | 75% | 1013.5 hPa | - | 0 m/s | - | - |
| 1778006766 | 14.44° C | 75% | 1013.5 hPa | - | 0 m/s | - | - |
| 1778005866 | 14.44° C | 74% | 1013.5 hPa | - | 0 m/s | - | - |
| 1778004966 | 14.44° C | 74% | 1013.3 hPa | - | 0 m/s | - | - |
| 1778004066 | 14.44° C | 76% | 1013.4 hPa | - | 0 m/s | - | - |
| 1778003166 | 14.44° C | 75% | 1013.3 hPa | - | 0 m/s | - | - |
| 1778002266 | 14.44° C | 74% | 1013.5 hPa | - | 0 m/s | - | - |
| 1778001366 | 14.44° C | 74% | 1013.4 hPa | - | 0 m/s | - | - |
| 1778000466 | 15° C | 75% | 1013.5 hPa | - | 0 m/s | - | - |
| 1777999566 | 15° C | 75% | 1013.5 hPa | - | 0 m/s | - | - |
| 1777998666 | 15° C | 74% | 1013.6 hPa | - | 0 m/s | - | - |
| 1777997766 | 15° C | 74% | 1013.6 hPa | - | 0 m/s | - | - |
| 1777996866 | 15° C | 71% | 1013.6 hPa | - | 0 m/s | - | - |
| 1777995966 | 15° C | 73% | 1013.7 hPa | - | 0 m/s | - | - |
| 1777995066 | 15° C | 74% | 1013.7 hPa | - | 0 m/s | - | - |
| 1777994166 | 15° C | 74% | 1013.7 hPa | - | 0 m/s | - | - |
| 1777993266 | 15° C | 73% | 1013.7 hPa | - | 0 m/s | - | - |
| 1777992366 | 15.56° C | 69% | 1013.8 hPa | - | 0 m/s | - | - |
| 1777991466 | 15.56° C | 69% | 1013.9 hPa | - | 0 m/s | - | - |
| 1777990566 | 15.56° C | 72% | 1013.9 hPa | - | 0 m/s | - | - |
| 1777989666 | 15.56° C | 72% | 1014.1 hPa | - | 0 m/s | - | - |
| 1777988766 | 14.44° C | 77% | 1014.1 hPa | - | 0 m/s | - | - |
* Rain since midnight (hover to see other rain measurements)
** Current wind speed in m/s (hover to see current wind gust speed)